E8376 Weather Reports


time (UTC)temp
C
wind
direction
speed
KPH
gust
KPH
rain 1hr
cm
rain 24hr
cm
rain mn
cm
humidity
%
barometer
mb
20260502223657 21 14 4.8 14.5 0.00 0.51 0.10 46 1018.3
20260502222924 21 315 4.8 14.5 0.00 0.51 0.10 45 1018.4
20260502222425 21 42 4.8 12.9 0.00 0.51 0.10 45 1018.3
20260502222410 21 18 4.8 14.5 0.00 0.51 0.10 46 1018.3
20260502221432 21 24 4.8 14.5 0.00 0.51 0.10 47 1018.2
20260502220928 21 275 4.8 12.9 0.00 0.51 0.10 46 1018.2
20260502220428 21 356 3.2 12.9 0.00 0.51 0.10 48 1018.4
20260502215927 21 6 4.8 14.5 0.00 0.51 0.10 47 1018.4
20260502215428 21 44 6.4 14.5 0.00 0.51 0.10 47 1018.4
20260502214928 22 9 4.8 14.5 0.00 0.51 0.10 45 1018.2
20260502214429 22 355 3.2 9.7 0.00 0.51 0.10 46 1018.2
20260502213926 21 16 4.8 12.9 0.00 0.53 0.10 46 1018.2
20260502213425 21 113 4.8 12.9 0.00 0.56 0.10 47 1018.4
20260502212922 21 17 6.4 14.5 0.00 0.58 0.10 46 1018.4
20260502212421 21 345 6.4 17.7 0.00 0.64 0.10 45 1018.6
20260502211919 22 359 6.4 19.3 0.00 0.69 0.10 46 1018.5
20260502211417 22 351 6.4 19.3 0.00 0.74 0.10 45 1018.5
20260502210916 22 348 6.4 16.1 0.00 0.76 0.10 46 1018.3
20260502210417 22 337 6.4 16.1 0.00 0.79 0.10 46 1018.4
20260502205919 21 305 6.4 17.7 0.00 0.81 0.10 46 1018.7
20260502205418 22 2 6.4 17.7 0.00 0.84 0.10 47 1018.8
20260502204918 22 358 6.4 17.7 0.00 0.84 0.10 44 1018.5
20260502204418 22 19 4.8 17.7 0.00 0.86 0.10 47 1018.5
20260502203918 22 27 4.8 17.7 0.00 0.86 0.10 47 1018.5
20260502203418 22 19 4.8 17.7 0.00 0.86 0.10 46 1018.5
20260502202918 22 333 4.8 16.1 0.00 0.86 0.10 48 1018.7
20260502202418 22 15 4.8 16.1 0.00 0.86 0.10 48 1018.8
20260502202151 22 334 6.4 14.5 0.00 0.86 0.10 47 1018.6
20260502201418 22 17 6.4 14.5 0.00 0.86 0.10 46 1018.9
20260502200914 22 11 4.8 12.9 0.00 0.86 0.10 47 1018.9
20260502200411 22 8 4.8 12.9 0.00 0.86 0.10 47 1019.0
20260502200138 22 340 4.8 12.9 0.00 0.86 0.10 48 1019.2
20260502195411 22 29 3.2 11.3 0.00 0.86 0.10 49 1018.9
20260502194912 22 43 4.8 16.1 0.00 0.86 0.10 49 1018.9
20260502194412 22 5 4.8 16.1 0.00 0.86 0.10 47 1019.2
20260502193911 22 18 4.8 14.5 0.00 0.86 0.10 49 1019.0
20260502193411 22 50 4.8 14.5 0.00 0.86 0.10 46 1018.9
20260502192911 22 9 4.8 16.1 0.00 0.86 0.10 47 1018.8
20260502192411 22 16 6.4 16.1 0.00 0.89 0.10 47 1019.0
20260502191913 22 357 6.4 14.5 0.00 0.89 0.10 46 1018.9
20260502191413 22 42 4.8 14.5 0.00 0.89 0.10 47 1019.2
20260502190912 22 357 4.8 16.1 0.00 0.89 0.10 46 1018.9
20260502190414 21 358 4.8 16.1 0.00 0.89 0.10 47 1019.4
20260502185912 21 38 4.8 12.9 0.00 0.89 0.10 47 1019.4
20260502185412 21 298 4.8 12.9 0.00 0.89 0.10 48 1019.4
20260502184913 21 26 4.8 12.9 0.00 0.91 0.10 47 1019.1
20260502184629 21 16 4.8 14.5 0.00 0.94 0.10 48 1019.2
20260502183910 21 306 4.8 14.5 0.00 0.97 0.10 44 1019.4
20260502183410 21 11 4.8 12.9 0.00 0.97 0.10 46 1019.5
20260502182909 21 29 4.8 12.9 0.00 0.99 0.10 46 1019.5
20260502182409 21 28 4.8 12.9 0.00 0.99 0.10 46 1019.7
20260502181909 21 142 4.8 19.3 0.00 1.02 0.10 48 1019.3
20260502181409 21 17 6.4 19.3 0.00 1.04 0.10 46 1019.8
20260502180910 21 31 4.8 14.5 0.00 1.07 0.10 49 1019.7
20260502180410 21 17 4.8 20.9 0.00 1.09 0.10 48 1019.7
20260502163904 20 20 4.8 14.5 0.00 1.42 0.10 56 1020.1
20260502163403 20 146 4.8 14.5 0.00 1.42 0.10 54 1020.1
20260502162903 20 343 4.8 11.3 0.00 1.42 0.10 50 1020.6
20260502162403 20 29 6.4 19.3 0.00 1.42 0.10 50 1020.2
20260502161903 19 21 6.4 19.3 0.00 1.45 0.10 52 1020.4
20260502161402 20 26 4.8 14.5 0.00 1.45 0.10 53 1020.4
20260502160902 20 293 4.8 11.3 0.00 1.45 0.10 55 1020.2
20260502160359 20 148 4.8 14.5 0.00 1.45 0.10 55 1020.3
20260502151900 19 148 3.2 19.3 0.00 1.45 0.10 60 1020.2
20260502151359 18 226 3.2 19.3 0.00 1.45 0.10 61 1020.1
20260502150901 18 34 4.8 14.5 0.00 1.45 0.10 63 1020.2
20260502150356 18 39 3.2 14.5 0.00 1.45 0.10 64 1019.9
20260502130332 12 0 0.0 1.6 0.00 1.55 0.10 97 1018.8
20260502123318 12 0 0.0 3.2 0.00 1.55 0.10 98 1018.7
20260502122818 12 0 0.0 1.6 0.00 1.55 0.10 98 1018.6
20260502122316 11 0 0.0 0.0 0.00 1.55 0.10 98 1018.6
20260502122038 11 0 0.0 0.0 0.00 1.55 0.10 98 1018.7
20260502121318 11 0 0.0 1.6 0.00 1.55 0.10 98 1018.7
20260502120820 11 32 0.0 1.6 0.00 1.55 0.10 98 1018.6
20260502120318 11 0 0.0 0.0 0.00 1.55 0.10 98 1018.3
20260502115818 11 0 0.0 0.0 0.00 1.55 0.10 98 1018.3
20260502115318 11 0 0.0 1.6 0.00 1.55 0.10 98 1018.2
20260502114818 11 0 0.0 3.2 0.00 1.55 0.10 98 1018.0
20260502114318 11 273 0.0 3.2 0.00 1.55 0.10 98 1018.0
20260502113821 11 0 0.0 1.6 0.00 1.55 0.10 98 1018.1
20260502113305 11 0 0.0 1.6 0.00 1.55 0.10 98 1017.9
20260502112805 12 0 0.0 1.6 0.00 1.55 0.10 98 1017.9
20260502112306 12 0 0.0 1.6 0.00 1.55 0.10 98 1017.8
20260502111805 12 0 0.0 3.2 0.00 1.55 0.10 98 1017.7
20260502111305 12 0 0.0 3.2 0.00 1.55 0.10 98 1017.7
20260502110805 12 0 0.0 1.6 0.00 1.55 0.10 98 1017.6
20260502110753 12 219 0.0 1.6 0.00 1.55 0.10 98 1017.6
20260502105805 12 0 0.0 3.2 0.00 1.55 0.10 98 1017.4
20260502105306 12 163 0.0 3.2 0.00 1.55 0.10 98 1017.3
20260502104806 12 0 0.0 3.2 0.00 1.55 0.10 98 1017.4
20260502104303 12 0 0.0 3.2 0.00 1.55 0.10 98 1017.4
20260502103803 12 0 0.0 0.0 0.00 1.55 0.10 98 1017.4
20260502103525 12 0 0.0 0.0 0.00 1.55 0.10 98 1017.3
20260502102802 12 0 0.0 0.0 0.00 1.55 0.10 98 1017.1
20260502102306 12 0 0.0 1.6 0.00 1.55 0.10 98 1017.1
20260502101804 12 0 0.0 1.6 0.00 1.55 0.10 98 1017.0
20260502101250 12 0 0.0 1.6 0.00 1.55 0.10 98 1017.0
20260502100750 12 0 0.0 3.2 0.00 1.55 0.10 98 1017.0
20260502100250 12 0 1.6 3.2 0.00 1.55 0.10 98 1016.9
20260502090750 12 0 0.0 3.2 0.00 1.55 0.10 98 1016.5
20260502090514 12 0 0.0 1.6 0.00 1.55 0.10 98 1016.5
20260502071221 12 0 0.0 0.0 0.00 1.55 0.10 98 1016.4
20260502070723 12 0 0.0 3.2 0.00 1.55 0.10 98 1016.4
20260502070224 12 0 0.0 3.2 0.00 1.55 0.10 98 1016.3
20260502065724 12 0 0.0 3.2 0.00 1.55 0.10 98 1016.4
20260502065222 12 0 0.0 0.0 0.03 1.55 0.10 98 1016.9
20260502064722 12 0 0.0 0.0 0.03 1.55 0.10 98 1016.9
20260502064223 12 0 0.0 0.0 0.05 1.55 0.10 98 1017.1
20260502063723 12 0 0.0 0.0 0.08 1.55 0.10 98 1017.2
20260502063222 12 0 0.0 0.0 0.10 1.55 0.10 98 1017.4
20260502062723 12 0 0.0 0.0 0.10 1.55 0.10 98 1017.5
20260502062206 12 0 0.0 0.0 0.10 1.55 0.10 98 1017.5
20260502061939 12 0 0.0 0.0 0.10 1.55 0.10 98 1017.4
20260502061206 12 0 0.0 0.0 0.10 1.55 0.10 98 1017.3
20260502060706 12 0 0.0 1.6 0.10 1.55 0.10 98 1017.4
20260502060206 12 0 0.0 1.6 0.10 1.55 0.10 98 1017.4
20260502055707 12 0 0.0 0.0 0.10 1.55 0.10 98 1017.5
20260502055206 12 0 0.0 1.6 0.10 1.55 0.10 98 1017.6
20260502055153 12 320 0.0 1.6 0.10 1.55 0.10 98 1017.9
20260502054434 12 0 0.0 3.2 0.08 1.52 0.08 98 1018.1
20260502053712 12 0 0.0 3.2 0.05 1.50 0.05 98 1018.1
20260502053211 12 0 0.0 3.2 0.05 1.47 0.03 98 1018.0
20260502053158 12 0 0.0 3.2 0.05 1.47 0.00 98 1018.0
20260502052208 12 23 0.0 3.2 0.05 1.47 0.00 98 1018.0
20260502051709 12 0 0.0 0.0 0.05 1.45 0.00 98 1018.0
20260502051209 12 0 0.0 0.0 0.05 1.45 0.00 98 1017.9
20260502050658 12 0 0.0 0.0 0.05 1.45 0.00 98 1018.0
20260502050142 12 0 0.0 0.0 0.05 1.45 0.00 98 1017.9
20260502045908 12 0 0.0 0.0 0.05 1.45 1.45 98 1017.9
20260502045144 12 0 0.0 0.0 0.05 1.45 1.45 98 1017.8
20260502044643 12 0 0.0 0.0 0.05 1.45 1.45 98 1017.9
20260502044143 12 0 0.0 0.0 0.05 1.45 1.45 98 1018.1
20260502043643 12 0 0.0 0.0 0.05 1.45 1.45 98 1017.9
20260502043143 12 0 0.0 0.0 0.03 1.42 1.42 98 1017.8
20260502042643 12 0 0.0 0.0 0.03 1.42 1.42 98 1017.9
20260502042145 12 0 0.0 0.0 0.03 1.42 1.42 97 1018.0
20260502042134 12 0 0.0 0.0 0.03 1.42 1.42 97 1018.3
20260502041143 12 0 0.0 0.0 0.00 1.42 1.42 98 1018.2
20260502040643 12 0 0.0 1.6 0.00 1.42 1.42 97 1018.0
20260502040144 12 0 0.0 1.6 0.00 1.40 1.40 97 1017.8
20260502035643 12 0 0.0 0.0 0.00 1.40 1.40 97 1017.8
20260502035129 12 0 0.0 3.2 0.00 1.40 1.40 98 1017.7
20260502035105 12 0 0.0 3.2 0.00 1.42 1.40 97 1017.9
20260502034112 12 0 0.0 3.2 0.00 1.42 1.40 97 1018.2
20260502033614 12 0 0.0 1.6 0.00 1.42 1.40 97 1018.1
20260502033112 12 0 0.0 1.6 0.00 1.42 1.40 97 1017.8
20260502032612 12 0 0.0 0.0 0.03 1.42 1.40 97 1017.3
20260502032113 12 0 0.0 1.6 0.05 1.42 1.40 97 1017.0
20260502031612 12 0 0.0 1.6 0.05 1.42 1.40 97 1016.8
20260502031113 12 0 0.0 3.2 0.08 1.42 1.40 97 1016.5
20260502030613 12 0 0.0 3.2 0.08 1.42 1.40 97 1016.7
20260502030113 12 0 0.0 3.2 0.08 1.42 1.40 97 1016.2
20260502025613 12 0 0.0 3.2 0.10 1.42 1.40 97 1016.2
20260502025112 12 161 0.0 3.2 0.10 1.42 1.40 97 1016.2
20260502024833 12 0 0.0 3.2 0.13 1.42 1.40 97 1016.3
20260502024111 12 0 0.0 0.0 0.13 1.42 1.40 97 1016.4
20260502023612 12 0 0.0 1.6 0.13 1.42 1.40 97 1016.4
20260502023551 12 0 0.0 1.6 0.15 1.42 1.40 97 1016.4
20260502022558 12 0 0.0 0.0 0.13 1.40 1.37 97 1016.4
20260502022059 12 0 0.0 1.6 0.13 1.37 1.37 97 1016.3
20260502021558 12 0 0.0 1.6 0.13 1.37 1.35 97 1016.2
20260502021059 12 0 0.0 0.0 0.10 1.35 1.32 97 1016.2
20260502020558 12 0 0.0 0.0 0.10 1.35 1.32 97 1016.1
20260502020058 12 0 0.0 0.0 0.10 1.35 1.32 97 1016.1
20260502015559 12 0 0.0 1.6 0.10 1.32 1.32 97 1016.1
20260502015059 12 0 0.0 1.6 0.10 1.32 1.30 97 1016.2
20260502014559 12 147 0.0 1.6 0.08 1.30 1.27 97 1016.1
20260502014059 12 0 0.0 1.6 0.08 1.30 1.27 97 1016.2
20260502012805 12 0 0.0 1.6 0.08 1.32 1.24 97 1016.5
20260502012044 12 29 0.0 1.6 0.05 1.30 1.24 97 1016.5
20260502011526 12 0 0.0 1.6 0.05 1.30 1.22 97 1016.8
20260502011027 12 0 0.0 1.6 0.05 1.30 1.22 97 1016.5
20260502010527 12 205 0.0 1.6 0.05 1.30 1.22 97 1016.4
20260502010027 12 0 0.0 0.0 0.05 1.30 1.22 97 1016.4
20260502005757 12 0 0.0 1.6 0.05 1.27 1.19 97 1016.7
20260502005027 12 29 0.0 1.6 0.05 1.27 1.19 97 1016.9
20260502004526 12 0 0.0 1.6 0.05 1.27 1.19 96 1017.0
20260502004244 12 0 0.0 0.0 0.05 1.27 1.19 96 1017.0
20260502003526 12 0 0.0 0.0 0.08 1.27 1.19 96 1017.0
20260502003028 12 0 0.0 3.2 0.08 1.27 1.19 96 1016.9
20260502002750 12 0 0.0 3.2 0.08 1.27 1.17 96 1016.8
20260502002452 12 192 0.0 3.2 0.08 1.27 1.17 96 1016.7
20260502001734 12 0 0.0 1.6 0.08 1.27 1.17 96 1016.7
20260502001235 12 0 0.0 0.0 0.10 1.27 1.17 96 1016.7
20260502000511 12 0 0.0 1.6 0.08 1.27 1.17 96 1016.5
20260502000012 12 0 0.0 1.6 0.08 1.27 1.17 96 1016.4
20260501235458 12 0 0.0 1.6 0.08 1.30 1.14 96 1016.3
20260501234957 12 0 0.0 3.2 0.05 1.27 1.14 96 1016.1
20260501234458 12 0 0.0 3.2 0.08 1.27 1.14 96 1016.2
20260501233957 12 0 0.0 3.2 0.08 1.27 1.12 96 1016.1
20260501233458 12 0 0.0 1.6 0.05 1.27 1.12 96 1016.1
20260501232957 12 0 0.0 3.2 0.05 1.27 1.12 96 1016.2
20260501232458 12 0 0.0 3.2 0.05 1.24 1.12 96 1016.2
20260501231958 12 287 0.0 3.2 0.05 1.24 1.09 95 1016.1
20260501231458 12 0 0.0 1.6 0.03 1.22 1.09 95 1016.2
20260501230957 12 0 0.0 1.6 0.03 1.22 1.09 95 1016.2
20260501230500 12 72 0.0 1.6 0.03 1.22 1.09 94 1016.0
20260501225943 12 266 1.6 3.2 0.03 1.22 1.09 94 1015.7
20260501225443 12 349 1.6 3.2 0.03 1.22 1.09 94 1015.3
20260501224943 12 323 1.6 3.2 0.03 1.22 1.09 94 1014.8
20260501224443 12 0 3.2 9.7 0.03 1.22 1.07 94 1014.4
20260501223938 12 0 3.2 9.7 0.03 1.19 1.07 94 1014.0